Location: Monrovia
(34.7865°N, 86.7139°W)
Time: 20:30:50
(UTC+00:00)

CZ-4B R/B - Pass Details

Date: 14 July 2020
Orbit: 702 x 803 km, 98.9° (Epoch: 08 August)

Event Time Altitude Azimuth Distance (km) Brightness Sun altitude
Rises 07:22:13 0° 19° (NNE) 3,217 7.9 -29.8°
Reaches altitude 10° 07:24:37 10° 24° (NNE) 2,272 6.9 -29.6°
Enters shadow 07:28:58 49° 79° (ENE) 944 4.1 -29.2°
